SV1JSO-13 Weather Reports


time (UTC)temp
C
wind
direction
speed
KPH
gust
KPH
rain 1hr
cm
rain 24hr
cm
rain mn
cm
humidity
%
barometer
mb
20260902060500 30 191 4.8 4.8 0.00 0.00 0.00 40 1009.2
20260902060000 30 219 6.4 6.4 0.00 0.00 0.00 38 1009.3
20260902055500 30 251 3.2 3.2 0.00 0.00 0.00 39 1009.2
20260902055000 30 269 6.4 6.4 0.00 0.00 0.00 38 1009.1
20260902054500 29 44 0.0 0.0 0.00 0.00 0.00 40 1009.1
20260902054000 29 311 9.7 12.9 0.00 0.00 0.00 41 1009.1
20260902053500 28 289 9.7 9.7 0.00 0.00 0.00 41 1009.0
20260902053000 28 306 14.5 14.5 0.00 0.00 0.00 41 1009.0
20260902052500 28 313 9.7 11.3 0.00 0.00 0.00 41 1009.1
20260902052000 28 317 14.5 14.5 0.00 0.00 0.00 42 1009.0
20260902051500 28 313 12.9 14.5 0.00 0.00 0.00 40 1009.1
20260902051000 28 293 12.9 14.5 0.00 0.00 0.00 41 1009.1
20260902050500 28 319 11.3 12.9 0.00 0.00 0.00 42 1009.1
20260902050000 28 355 6.4 8.0 0.00 0.00 0.00 43 1009.0
20260902045500 28 321 11.3 17.7 0.00 0.00 0.00 43 1009.0
20260902045000 28 322 9.7 12.9 0.00 0.00 0.00 42 1009.0
20260902044500 28 324 8.0 9.7 0.00 0.00 0.00 42 1009.0
20260902044000 28 285 11.3 14.5 0.00 0.00 0.00 41 1008.9
20260902043500 28 335 9.7 9.7 0.00 0.00 0.00 41 1009.0
20260902043000 27 295 6.4 8.0 0.00 0.00 0.00 41 1008.9
20260902042500 27 305 11.3 12.9 0.00 0.00 0.00 41 1008.9
20260902042000 27 11 3.2 3.2 0.00 0.00 0.00 40 1008.9
20260902041500 27 256 1.6 1.6 0.00 0.00 0.00 39 1008.8
20260902041000 27 69 1.6 3.2 0.00 0.00 0.00 38 1008.8
20260902040500 27 129 0.0 3.2 0.00 0.00 0.00 39 1008.7
20260902040000 27 190 3.2 3.2 0.00 0.00 0.00 39 1008.7
20260902035500 27 337 1.6 4.8 0.00 0.00 0.00 39 1008.8
20260902035000 27 309 0.0 3.2 0.00 0.00 0.00 38 1008.7
20260902034500 27 313 3.2 3.2 0.00 0.00 0.00 39 1008.8
20260902034000 27 68 4.8 6.4 0.00 0.00 0.00 39 1008.7
20260902033500 28 319 4.8 6.4 0.00 0.00 0.00 38 1008.6
20260902033000 27 1 6.4 6.4 0.00 0.00 0.00 38 1008.6
20260902032500 27 177 4.8 4.8 0.00 0.00 0.00 40 1008.6
20260902032000 27 116 3.2 3.2 0.00 0.00 0.00 40 1008.6
20260902031500 27 196 0.0 1.6 0.00 0.00 0.00 39 1008.5
20260902031000 27 251 3.2 3.2 0.00 0.00 0.00 39 1008.5
20260902030500 27 223 1.6 3.2 0.00 0.00 0.00 39 1008.3
20260902030000 27 160 3.2 3.2 0.00 0.00 0.00 40 1008.4
20260902025500 27 239 4.8 4.8 0.00 0.00 0.00 39 1008.3
20260902025000 28 20 1.6 3.2 0.00 0.00 0.00 39 1008.3
20260902024500 28 224 0.0 0.0 0.00 0.00 0.00 38 1008.4
20260902024000 28 165 0.0 3.2 0.00 0.00 0.00 38 1008.3
20260902023500 28 164 3.2 3.2 0.00 0.00 0.00 38 1008.3
20260902023000 28 324 1.6 1.6 0.00 0.00 0.00 38 1008.3
20260902022500 27 354 4.8 6.4 0.00 0.00 0.00 39 1008.4
20260902022000 27 9 3.2 4.8 0.00 0.00 0.00 44 1008.3
20260902021500 27 122 3.2 4.8 0.00 0.00 0.00 43 1008.5
20260902021000 28 72 0.0 1.6 0.00 0.00 0.00 43 1008.3
20260902020500 28 347 6.4 6.4 0.00 0.00 0.00 43 1008.4
20260902020000 27 356 6.4 8.0 0.00 0.00 0.00 47 1008.3
20260902015500 27 347 4.8 4.8 0.00 0.00 0.00 53 1008.3
20260902015000 27 303 4.8 4.8 0.00 0.00 0.00 54 1008.3
20260902014500 27 27 3.2 3.2 0.00 0.00 0.00 57 1008.4
20260902014000 27 298 1.6 3.2 0.00 0.00 0.00 57 1008.4
20260902013500 27 37 0.0 0.0 0.00 0.00 0.00 56 1008.5
20260902013000 27 359 1.6 3.2 0.00 0.00 0.00 55 1008.5
20260902012500 27 87 0.0 1.6 0.00 0.00 0.00 53 1008.4
20260902012000 27 296 0.0 0.0 0.00 0.00 0.00 51 1008.3
20260902011500 27 122 4.8 4.8 0.00 0.00 0.00 53 1008.5
20260902011000 27 134 1.6 1.6 0.00 0.00 0.00 60 1008.3
20260902010500 27 302 1.6 1.6 0.00 0.00 0.00 62 1008.4
20260902010000 27 264 0.0 1.6 0.00 0.00 0.00 62 1008.3
20260902005500 27 283 0.0 0.0 0.00 0.00 0.00 62 1008.4
20260902005000 27 135 0.0 0.0 0.00 0.00 0.00 62 1008.5
20260902004500 27 203 1.6 3.2 0.00 0.00 0.00 61 1008.4
20260902004000 27 269 0.0 1.6 0.00 0.00 0.00 61 1008.4
20260902003500 27 147 0.0 0.0 0.00 0.00 0.00 61 1008.3
20260902003000 27 343 0.0 0.0 0.00 0.00 0.00 62 1008.3
20260902002500 27 172 3.2 3.2 0.00 0.00 0.00 62 1008.3
20260902002000 27 180 0.0 1.6 0.00 0.00 0.00 62 1008.3
20260902001500 27 120 4.8 4.8 0.00 0.00 0.00 64 1008.4
20260902001000 27 197 0.0 3.2 0.00 0.00 0.00 64 1008.4
20260902000500 27 77 3.2 3.2 0.00 0.00 0.00 64 1008.3
20260902000000 27 232 1.6 3.2 0.00 0.00 0.00 63 1008.3
20260901235500 27 230 4.8 6.4 0.00 0.00 0.00 63 1008.3
20260901235000 27 167 1.6 3.2 0.00 0.00 0.00 62 1008.3
20260901234500 27 190 0.0 3.2 0.00 0.00 0.00 60 1008.3
20260901234000 27 181 4.8 4.8 0.00 0.00 0.00 61 1008.3
20260901233500 27 178 0.0 3.2 0.00 0.00 0.00 61 1008.3
20260901233000 27 221 3.2 3.2 0.00 0.00 0.00 59 1008.3
20260901232500 27 63 0.0 0.0 0.00 0.00 0.00 60 1008.3
20260901232000 28 262 3.2 4.8 0.00 0.00 0.00 57 1008.3
20260901231500 28 201 0.0 1.6 0.00 0.00 0.00 52 1008.4
20260901231000 27 318 8.0 8.0 0.00 0.00 0.00 51 1008.3
20260901230500 27 280 3.2 3.2 0.00 0.00 0.00 58 1008.4
20260901230000 27 320 0.0 1.6 0.00 0.00 0.00 58 1008.5
20260901225500 28 275 3.2 3.2 0.00 0.00 0.00 58 1008.4
20260901225000 27 109 1.6 1.6 0.00 0.00 0.00 59 1008.4
20260901224500 27 355 1.6 3.2 0.00 0.00 0.00 59 1008.4
20260901224000 27 350 3.2 3.2 0.00 0.00 0.00 58 1008.3
20260901223500 27 72 4.8 4.8 0.00 0.00 0.00 60 1008.5
20260901223000 27 57 3.2 3.2 0.00 0.00 0.00 62 1008.4
20260901222500 27 61 3.2 3.2 0.00 0.00 0.00 61 1008.4
20260901222000 27 70 3.2 6.4 0.00 0.00 0.00 61 1008.5
20260901221500 27 58 4.8 8.0 0.00 0.00 0.00 62 1008.5
20260901221000 27 48 6.4 8.0 0.00 0.00 0.00 61 1008.4
20260901220500 27 121 1.6 3.2 0.00 0.00 0.00 60 1008.6
20260901220000 27 72 3.2 3.2 0.00 0.00 0.00 59 1008.6
20260901215500 27 63 3.2 3.2 0.00 0.00 0.00 59 1008.6
20260901215000 28 152 3.2 4.8 0.00 0.00 0.00 63 1008.7
20260901214500 28 145 0.0 0.0 0.00 0.00 0.00 59 1008.7
20260901214000 28 0 0.0 0.0 0.00 0.00 0.00 56 1008.5
20260901213500 28 128 6.4 6.4 0.00 0.00 0.00 53 1008.7
20260901213000 28 149 4.8 4.8 0.00 0.00 0.00 50 1008.7
20260901212500 28 137 1.6 1.6 0.00 0.00 0.00 51 1008.6
20260901212000 28 281 1.6 1.6 0.00 0.00 0.00 52 1008.5
20260901211500 28 44 0.0 0.0 0.00 0.00 0.00 49 1008.4
20260901211000 28 62 0.0 0.0 0.00 0.00 0.00 49 1008.5
20260901210500 28 315 0.0 0.0 0.00 0.00 0.00 51 1008.4
20260901210000 28 343 0.0 0.0 0.00 0.00 0.00 51 1008.6
20260901205500 28 327 0.0 0.0 0.00 0.00 0.00 51 1008.5
20260901205000 28 200 1.6 1.6 0.00 0.00 0.00 50 1008.7
20260901204500 29 339 0.0 0.0 0.00 0.00 0.00 49 1008.5
20260901204000 29 200 1.6 3.2 0.00 0.00 0.00 48 1008.5
20260901203500 28 191 3.2 3.2 0.00 0.00 0.00 49 1008.6
20260901203000 28 230 0.0 0.0 0.00 0.00 0.00 48 1008.5
20260901202500 29 63 1.6 1.6 0.00 0.00 0.00 49 1008.5
20260901202000 29 195 0.0 0.0 0.00 0.00 0.00 49 1008.5
20260901201500 29 25 0.0 0.0 0.00 0.00 0.00 48 1008.6
20260901201000 29 105 0.0 0.0 0.00 0.00 0.00 47 1008.5
20260901200500 29 315 0.0 1.6 0.00 0.00 0.00 46 1008.5
20260901200000 29 292 0.0 1.6 0.00 0.00 0.00 44 1008.5
20260901195500 30 300 0.0 1.6 0.00 0.00 0.00 43 1008.5
20260901195000 30 307 0.0 0.0 0.00 0.00 0.00 43 1008.6
20260901194500 30 224 0.0 0.0 0.00 0.00 0.00 42 1008.6
20260901194000 30 242 3.2 3.2 0.00 0.00 0.00 41 1008.5
20260901193500 30 29 1.6 1.6 0.00 0.00 0.00 41 1008.5
20260901193000 30 190 0.0 0.0 0.00 0.00 0.00 42 1008.5
20260901192500 30 104 0.0 0.0 0.00 0.00 0.00 43 1008.4
20260901192000 30 64 0.0 3.2 0.00 0.00 0.00 43 1008.4
20260901191500 30 145 3.2 4.8 0.00 0.00 0.00 42 1008.5
20260901191000 30 151 0.0 1.6 0.00 0.00 0.00 41 1008.5
20260901190500 30 44 0.0 1.6 0.00 0.00 0.00 38 1008.5
20260901190000 30 320 6.4 6.4 0.00 0.00 0.00 38 1008.5
20260901185500 30 338 4.8 4.8 0.00 0.00 0.00 38 1008.3
20260901185000 30 341 4.8 6.4 0.00 0.00 0.00 38 1008.3
20260901184500 30 333 6.4 8.0 0.00 0.00 0.00 39 1008.4
20260901184000 30 317 9.7 9.7 0.00 0.00 0.00 39 1008.2
20260901183500 30 326 4.8 6.4 0.00 0.00 0.00 39 1008.2
20260901183000 30 303 6.4 9.7 0.00 0.00 0.00 39 1008.2
20260901182500 30 317 6.4 6.4 0.00 0.00 0.00 39 1008.3
20260901182000 30 353 4.8 6.4 0.00 0.00 0.00 40 1008.2
20260901181500 30 303 4.8 6.4 0.00 0.00 0.00 42 1008.1
20260901181000 30 303 6.4 8.0 0.00 0.00 0.00 41 1008.0
20260901180500 30 300 8.0 8.0 0.00 0.00 0.00 38 1008.1
20260901180000 30 351 6.4 6.4 0.00 0.00 0.00 37 1008.0
20260901175500 30 342 9.7 11.3 0.00 0.00 0.00 37 1007.8
20260901175000 30 5 8.0 11.3 0.00 0.00 0.00 37 1007.9
20260901174500 30 15 9.7 9.7 0.00 0.00 0.00 37 1007.8
20260901174000 30 354 9.7 9.7 0.00 0.00 0.00 37 1007.8
20260901173500 31 24 6.4 8.0 0.00 0.00 0.00 36 1007.6
20260901173000 31 2 8.0 8.0 0.00 0.00 0.00 36 1007.6
20260901172500 31 14 11.3 12.9 0.00 0.00 0.00 36 1007.6
20260901172000 31 357 6.4 6.4 0.00 0.00 0.00 36 1007.6
20260901171500 31 357 8.0 9.7 0.00 0.00 0.00 36 1007.6
20260901171000 31 43 9.7 12.9 0.00 0.00 0.00 36 1007.6
20260901170500 31 14 11.3 14.5 0.00 0.00 0.00 36 1007.6
20260901170000 31 354 9.7 12.9 0.00 0.00 0.00 36 1007.5
20260901165500 31 54 12.9 17.7 0.00 0.00 0.00 36 1007.6
20260901165000 31 47 16.1 24.1 0.00 0.00 0.00 35 1007.6
20260901162500 31 36 9.7 17.7 0.00 0.00 0.00 35 1007.2
20260901162000 31 36 9.7 17.7 0.00 0.00 0.00 35 1007.2
20260901161500 31 36 9.7 17.7 0.00 0.00 0.00 35 1007.2
20260901161000 31 30 12.9 17.7 0.00 0.00 0.00 35 1007.3
20260901160500 31 21 16.1 22.5 0.00 0.00 0.00 35 1007.3
20260901160000 31 44 14.5 17.7 0.00 0.00 0.00 34 1007.3
20260901155500 31 42 14.5 16.1 0.00 0.00 0.00 34 1007.3
20260901155000 31 40 17.7 17.7 0.00 0.00 0.00 34 1007.4
20260901154500 31 30 20.9 20.9 0.00 0.00 0.00 34 1007.4
20260901154000 32 58 11.3 16.1 0.00 0.00 0.00 33 1007.3
20260901153500 32 58 11.3 16.1 0.00 0.00 0.00 33 1007.3
20260901153000 32 53 8.0 8.0 0.00 0.00 0.00 32 1007.3
20260901152500 32 17 6.4 9.7 0.00 0.00 0.00 32 1007.3
20260901152000 32 50 4.8 6.4 0.00 0.00 0.00 32 1007.3
20260901151500 32 73 11.3 12.9 0.00 0.00 0.00 32 1007.4
20260901151000 32 73 14.5 14.5 0.00 0.00 0.00 32 1007.3
20260901150500 32 50 6.4 8.0 0.00 0.00 0.00 32 1007.3
20260901150000 32 78 14.5 20.9 0.00 0.00 0.00 31 1007.4
20260901145500 32 67 16.1 17.7 0.00 0.00 0.00 32 1007.3
20260901145001 32 73 8.0 11.3 0.00 0.00 0.00 31 1007.4
20260901144500 32 43 19.3 20.9 0.00 0.00 0.00 31 1007.5
20260901144000 32 63 11.3 17.7 0.00 0.00 0.00 31 1007.4
20260901143500 32 334 3.2 3.2 0.00 0.00 0.00 32 1007.4
20260901143000 32 40 12.9 20.9 0.00 0.00 0.00 32 1007.5
20260901142500 32 45 11.3 17.7 0.00 0.00 0.00 31 1007.5
20260901142000 32 27 9.7 14.5 0.00 0.00 0.00 32 1007.6
20260901141500 32 342 9.7 12.9 0.00 0.00 0.00 36 1007.6
20260901141000 32 299 8.0 9.7 0.00 0.00 0.00 38 1007.6
20260901140500 32 281 9.7 9.7 0.00 0.00 0.00 38 1007.7
20260901140000 32 262 4.8 6.4 0.00 0.00 0.00 39 1007.7
20260901135500 32 306 6.4 9.7 0.00 0.00 0.00 39 1007.7
20260901135000 32 256 9.7 9.7 0.00 0.00 0.00 40 1007.8
20260901134500 32 262 4.8 6.4 0.00 0.00 0.00 41 1007.8
20260901134000 32 244 6.4 12.9 0.00 0.00 0.00 44 1007.8
20260901133500 31 255 9.7 14.5 0.00 0.00 0.00 45 1007.7
20260901133000 31 231 3.2 6.4 0.00 0.00 0.00 47 1007.8
20260901132500 31 201 14.5 16.1 0.00 0.00 0.00 46 1007.7
20260901132000 31 242 8.0 11.3 0.00 0.00 0.00 47 1007.7
20260901131500 31 211 8.0 9.7 0.00 0.00 0.00 50 1007.6
20260901131000 31 244 4.8 14.5 0.00 0.00 0.00 48 1007.5
20260901130500 31 228 9.7 12.9 0.00 0.00 0.00 47 1007.8
20260901130000 31 271 9.7 11.3 0.00 0.00 0.00 43 1007.7
20260901125500 31 237 6.4 9.7 0.00 0.00 0.00 38 1007.7
20260901125000 31 213 16.1 16.1 0.00 0.00 0.00 39 1007.7
20260901124500 32 215 16.1 16.1 0.00 0.00 0.00 43 1007.7
20260901124000 31 275 11.3 14.5 0.00 0.00 0.00 42 1007.8
20260901123500 30 195 6.4 6.4 0.00 0.00 0.00 49 1007.9
20260901123000 31 221 6.4 11.3 0.00 0.00 0.00 48 1008.1
20260901122500 30 242 6.4 9.7 0.00 0.00 0.00 46 1008.0
20260901122000 30 236 3.2 6.4 0.00 0.00 0.00 47 1008.3
20260901121500 31 211 11.3 12.9 0.00 0.00 0.00 43 1008.2
20260901121000 31 276 9.7 9.7 0.00 0.00 0.00 44 1008.3
20260901120500 31 248 8.0 9.7 0.00 0.00 0.00 45 1008.3
20260901120000 31 254 11.3 12.9 0.00 0.00 0.00 43 1008.2
20260901115500 31 247 12.9 12.9 0.00 0.00 0.00 40 1008.2
20260901115000 31 225 12.9 14.5 0.00 0.00 0.00 40 1008.2
20260901114500 31 232 9.7 16.1 0.00 0.00 0.00 37 1008.2
20260901114000 31 236 12.9 14.5 0.00 0.00 0.00 41 1008.4
20260901113500 31 212 12.9 14.5 0.00 0.00 0.00 38 1008.2
20260901113000 31 214 17.7 17.7 0.00 0.00 0.00 38 1008.3
20260901112500 31 204 12.9 16.1 0.00 0.00 0.00 38 1008.1
20260901112000 31 225 17.7 19.3 0.00 0.00 0.00 39 1008.1
20260901111500 31 230 12.9 16.1 0.00 0.00 0.00 39 1008.1
20260901111000 31 248 12.9 16.1 0.00 0.00 0.00 39 1008.1
20260901110500 31 221 8.0 12.9 0.00 0.00 0.00 40 1008.2
20260901110000 31 225 8.0 12.9 0.00 0.00 0.00 39 1008.2
20260901105500 31 197 8.0 11.3 0.00 0.00 0.00 42 1008.3
20260901105000 30 259 8.0 11.3 0.00 0.00 0.00 45 1008.3
20260901104500 30 225 8.0 12.9 0.00 0.00 0.00 43 1008.3
20260901104000 30 239 9.7 14.5 0.00 0.00 0.00 47 1008.3
20260901103500 31 199 14.5 19.3 0.00 0.00 0.00 49 1008.4
20260901103000 30 227 8.0 11.3 0.00 0.00 0.00 47 1008.3
20260901102500 31 214 16.1 17.7 0.00 0.00 0.00 44 1008.4
20260901102000 30 260 8.0 14.5 0.00 0.00 0.00 46 1008.5
20260901101500 31 202 12.9 17.7 0.00 0.00 0.00 46 1008.6
20260901101000 31 188 3.2 9.7 0.00 0.00 0.00 47 1008.5
20260901100500 30 319 4.8 11.3 0.00 0.00 0.00 48 1008.5
20260901100000 30 260 4.8 4.8 0.00 0.00 0.00 49 1008.5
20260901095500 31 189 6.4 8.0 0.00 0.00 0.00 46 1008.5
20260901095000 31 226 3.2 4.8 0.00 0.00 0.00 47 1008.5
20260901094500 31 165 8.0 11.3 0.00 0.00 0.00 39 1008.5
20260901094000 32 241 6.4 11.3 0.00 0.00 0.00 45 1008.6
20260901093500 32 47 3.2 6.4 0.00 0.00 0.00 29 1008.6
20260901093000 30 16 12.9 17.7 0.00 0.00 0.00 48 1008.6
20260901092500 31 185 4.8 9.7 0.00 0.00 0.00 44 1008.7
20260901092000 32 189 4.8 4.8 0.00 0.00 0.00 41 1008.7
20260901091500 32 226 6.4 8.0 0.00 0.00 0.00 32 1008.9
20260901091000 33 104 6.4 9.7 0.00 0.00 0.00 28 1008.7
20260901090500 32 33 4.8 6.4 0.00 0.00 0.00 28 1008.8
20260901090000 33 84 11.3 17.7 0.00 0.00 0.00 27 1008.8
20260901085500 32 147 4.8 9.7 0.00 0.00 0.00 28 1008.7
20260901085000 32 84 14.5 20.9 0.00 0.00 0.00 28 1008.5
20260901084500 32 87 12.9 16.1 0.00 0.00 0.00 28 1008.7
20260901084000 32 72 25.7 32.2 0.00 0.00 0.00 28 1008.4
20260901083500 32 319 8.0 11.3 0.00 0.00 0.00 30 1008.7
20260901083000 31 48 12.9 17.7 0.00 0.00 0.00 32 1008.7
20260901082500 31 15 14.5 19.3 0.00 0.00 0.00 33 1008.6
20260901082000 30 50 11.3 11.3 0.00 0.00 0.00 42 1008.6
20260901081500 31 349 19.3 20.9 0.00 0.00 0.00 39 1008.3
20260901081000 32 205 11.3 12.9 0.00 0.00 0.00 34 1008.5
20260901080500 31 262 1.6 3.2 0.00 0.00 0.00 35 1008.6
20260901080000 31 12 4.8 6.4 0.00 0.00 0.00 36 1008.5
20260901075500 31 331 6.4 11.3 0.00 0.00 0.00 37 1008.5
20260901075000 30 327 8.0 11.3 0.00 0.00 0.00 39 1008.6
20260901074500 30 313 11.3 11.3 0.00 0.00 0.00 40 1008.4
20260901074000 30 309 8.0 9.7 0.00 0.00 0.00 40 1008.4
20260901073500 29 324 9.7 9.7 0.00 0.00 0.00 44 1008.4
20260901073000 29 288 11.3 12.9 0.00 0.00 0.00 44 1008.4
20260901072500 28 235 4.8 6.4 0.00 0.00 0.00 43 1008.3
20260901072000 29 244 6.4 8.0 0.00 0.00 0.00 42 1008.3
20260901071500 29 277 3.2 3.2 0.00 0.00 0.00 41 1008.4
20260901071000 29 261 4.8 4.8 0.00 0.00 0.00 41 1008.3
20260901070500 29 241 4.8 6.4 0.00 0.00 0.00 42 1008.4
20260901070000 30 189 3.2 6.4 0.00 0.00 0.00 41 1008.3
20260901065500 28 287 1.6 3.2 0.00 0.00 0.00 43 1008.2
20260901065000 29 272 4.8 8.0 0.00 0.00 0.00 42 1008.3
20260901064500 29 354 0.0 3.2 0.00 0.00 0.00 43 1008.2
20260901064000 30 194 0.0 3.2 0.00 0.00 0.00 40 1008.3
20260901063500 30 258 0.0 1.6 0.00 0.00 0.00 40 1008.2
20260901063000 30 267 1.6 1.6 0.00 0.00 0.00 41 1008.3
20260901062500 29 5 1.6 3.2 0.00 0.00 0.00 39 1008.4
20260901062000 29 324 0.0 3.2 0.00 0.00 0.00 39 1008.4
20260901061500 30 281 3.2 3.2 0.00 0.00 0.00 37 1008.4
20260901061000 29 137 1.6 1.6 0.00 0.00 0.00 41 1008.4